Location: Borojevi?i
(45.0486°N, 16.2297°E)
Time: 08:16:33
(UTC+00:00)

SWAS - Pass Details

Date: 08 August 2020
Orbit: 579 x 592 km, 69.9° (Epoch: 26 September)

Event Time Altitude Azimuth Distance (km) Brightness Sun altitude
Rises 19:42:36 0° 201° (SSW) 2,801 7.7 -14.4°
Reaches altitude 10° 19:44:49 10° 200° (SSW) 1,907 6.9 -14.7°
Maximum altitude 19:49:05 76° 116° (ESE) 612 4.3 -15.2°
Drops below altitude 10° 19:53:24 10° 30° (NNE) 1,928 7.2 -15.8°
Sets 19:55:39 0° 29° (NNE) 2,835 8.1 -16.1°
